TimeEST,TemperatureF,Dew PointF,Humidity,Sea Level PressureIn,VisibilityMPH,Wind Direction,Wind SpeedMPH,Gust SpeedMPH,PrecipitationIn,Events,Conditions,WindDirDegrees,DateUTC
12:15 AM,9.5,3.9,78,30.17,10.0,WSW,9.2,-,N/A,,Clear,250,2014-02-08 05:15:00
12:34 AM,9.5,4.1,79,30.18,10.0,WSW,12.7,18.4,N/A,,Clear,250,2014-02-08 05:34:00
12:54 AM,9.3,3.9,79,30.18,10.0,WSW,9.2,-,N/A,,Clear,250,2014-02-08 05:54:00
1:15 AM,9.5,4.1,79,30.18,10.0,WSW,10.4,-,N/A,,Clear,240,2014-02-08 06:15:00
1:34 AM,9.3,3.9,79,30.18,10.0,WSW,10.4,-,N/A,,Clear,240,2014-02-08 06:34:00
1:54 AM,9.5,4.1,79,30.19,10.0,WSW,10.4,-,N/A,,Clear,250,2014-02-08 06:54:00
2:15 AM,9.3,3.9,79,30.19,10.0,WSW,8.1,-,N/A,,Clear,250,2014-02-08 07:15:00
2:34 AM,10.2,4.5,78,30.19,10.0,WSW,12.7,-,N/A,,Scattered Clouds,250,2014-02-08 07:34:00
2:55 AM,10.2,4.1,76,30.19,10.0,WSW,10.4,16.1,N/A,,Mostly Cloudy,250,2014-02-08 07:55:00
3:14 AM,9.3,3.9,79,30.19,10.0,WSW,9.2,-,N/A,,Scattered Clouds,250,2014-02-08 08:14:00
3:34 AM,9.1,3.7,79,30.19,10.0,WSW,8.1,-,N/A,,Clear,250,2014-02-08 08:34:00
3:55 AM,8.6,3.2,79,30.19,10.0,WSW,6.9,-,N/A,Snow,Light Snow,250,2014-02-08 08:55:00
4:14 AM,9.0,3.6,79,30.19,10.0,WSW,5.8,-,N/A,,Mostly Cloudy,240,2014-02-08 09:14:00
4:34 AM,9.5,4.1,79,30.19,10.0,WSW,6.9,-,N/A,Snow,Light Snow,250,2014-02-08 09:34:00
4:55 AM,10.0,4.1,77,30.19,10.0,WSW,6.9,-,N/A,Snow,Light Snow,250,2014-02-08 09:55:00
5:14 AM,10.2,4.5,78,30.19,10.0,WSW,5.8,-,N/A,Snow,Light Snow,250,2014-02-08 10:14:00
5:34 AM,10.4,4.6,78,30.19,10.0,WSW,8.1,-,N/A,Snow,Light Snow,240,2014-02-08 10:34:00
5:55 AM,11.3,5.4,77,30.19,10.0,WSW,9.2,-,N/A,Snow,Light Snow,240,2014-02-08 10:55:00
6:14 AM,11.7,5.5,76,30.19,10.0,West,8.1,-,N/A,Snow,Light Snow,260,2014-02-08 11:14:00
6:34 AM,11.7,5.5,76,30.19,10.0,West,5.8,-,N/A,Snow,Light Snow,260,2014-02-08 11:34:00
6:55 AM,11.1,5.5,78,30.19,10.0,WSW,5.8,-,N/A,Snow,Light Snow,240,2014-02-08 11:55:00
7:14 AM,11.1,5.9,80,30.18,10.0,SW,5.8,-,N/A,Snow,Light Snow,230,2014-02-08 12:14:00
7:34 AM,11.1,5.9,80,30.18,10.0,SW,3.5,-,N/A,Snow,Light Snow,230,2014-02-08 12:34:00
7:55 AM,11.3,5.9,79,30.18,3.0,SW,3.5,-,N/A,Snow,Light Snow,230,2014-02-08 12:55:00
8:14 AM,10.9,5.7,79,30.19,7.0,Calm,Calm,-,N/A,Snow,Light Snow,0,2014-02-08 13:14:00
8:35 AM,10.9,5.4,78,30.19,10.0,Calm,Calm,-,N/A,,Overcast,0,2014-02-08 13:35:00
8:55 AM,11.1,5.5,78,30.19,7.0,Calm,Calm,-,N/A,Snow,Light Snow,0,2014-02-08 13:55:00
9:14 AM,10.0,5.0,80,30.19,10.0,Calm,Calm,-,N/A,,Overcast,0,2014-02-08 14:14:00
9:35 AM,11.8,6.3,78,30.19,7.0,Calm,Calm,-,N/A,Snow,Light Snow,0,2014-02-08 14:35:00
9:55 AM,13.5,7.0,75,30.19,7.0,WSW,3.5,-,N/A,Snow,Light Snow,240,2014-02-08 14:55:00
10:14 AM,14.5,7.2,73,30.19,10.0,WSW,5.8,-,N/A,,Overcast,240,2014-02-08 15:14:00
10:35 AM,15.3,7.5,71,30.19,10.0,WSW,8.1,-,N/A,Snow,Light Snow,240,2014-02-08 15:35:00
10:55 AM,16.2,6.6,66,30.19,10.0,West,6.9,-,N/A,,Overcast,270,2014-02-08 15:55:00
11:14 AM,16.9,5.7,62,30.19,10.0,WSW,10.4,-,N/A,,Overcast,250,2014-02-08 16:14:00
11:35 AM,17.6,6.1,61,30.19,10.0,WSW,10.4,-,N/A,,Overcast,250,2014-02-08 16:35:00
11:55 AM,17.4,6.4,62,30.18,10.0,West,8.1,-,N/A,,Overcast,260,2014-02-08 16:55:00
12:14 PM,17.1,5.5,61,30.17,10.0,WNW,6.9,-,N/A,,Mostly Cloudy,290,2014-02-08 17:14:00
12:35 PM,18.5,7.3,62,30.17,10.0,WSW,10.4,-,N/A,,Overcast,240,2014-02-08 17:35:00
12:54 PM,17.6,6.8,63,30.16,10.0,SW,9.2,-,N/A,,Overcast,230,2014-02-08 17:54:00
1:14 PM,17.2,6.8,64,30.16,10.0,WSW,9.2,-,N/A,,Overcast,240,2014-02-08 18:14:00
1:35 PM,17.6,6.3,61,30.15,10.0,SW,11.5,-,N/A,,Overcast,230,2014-02-08 18:35:00
1:54 PM,18.7,7.2,61,30.14,10.0,WSW,8.1,-,N/A,,Overcast,240,2014-02-08 18:54:00
2:14 PM,18.5,7.0,61,30.13,10.0,West,6.9,-,N/A,,Overcast,260,2014-02-08 19:14:00
2:35 PM,18.9,6.4,58,30.12,10.0,WSW,9.2,-,N/A,,Overcast,240,2014-02-08 19:35:00
2:54 PM,20.3,7.3,57,30.11,10.0,West,8.1,-,N/A,,Overcast,280,2014-02-08 19:54:00
3:14 PM,19.8,7.7,60,30.11,10.0,West,6.9,-,N/A,,Overcast,260,2014-02-08 20:14:00
3:35 PM,19.6,8.4,62,30.11,10.0,WSW,9.2,-,N/A,,Overcast,250,2014-02-08 20:35:00
3:54 PM,19.4,9.1,64,30.12,10.0,SW,8.1,-,N/A,,Overcast,230,2014-02-08 20:54:00
4:14 PM,18.9,10.2,69,30.11,2.5,SW,9.2,-,N/A,Snow,Light Snow,230,2014-02-08 21:14:00
4:35 PM,18.5,10.4,71,30.11,5.0,WSW,8.1,-,N/A,Snow,Light Snow,240,2014-02-08 21:35:00
4:54 PM,18.3,10.4,71,30.10,2.0,WSW,3.5,-,N/A,Snow,Light Snow,250,2014-02-08 21:54:00
5:14 PM,18.3,11.1,73,30.10,3.0,WSW,3.5,-,N/A,Snow,Light Snow,250,2014-02-08 22:14:00
5:35 PM,18.1,11.3,75,30.10,10.0,WSW,3.5,-,N/A,,Overcast,240,2014-02-08 22:35:00
5:54 PM,17.8,10.4,73,30.11,10.0,SW,4.6,-,N/A,,Overcast,230,2014-02-08 22:54:00
6:15 PM,17.6,11.3,76,30.11,2.0,SSW,3.5,-,N/A,Snow,Light Snow,210,2014-02-08 23:15:00
6:35 PM,17.4,13.1,83,30.12,1.2,Calm,Calm,-,N/A,Snow,Snow,0,2014-02-08 23:35:00
6:54 PM,17.1,13.6,86,30.11,1.2,Calm,Calm,-,N/A,Snow,Light Snow,0,2014-02-08 23:54:00
7:15 PM,16.9,13.1,85,30.12,3.0,SSW,5.8,-,N/A,Snow,Light Snow,200,2014-02-09 00:15:00
7:34 PM,16.5,12.2,83,30.12,7.0,SSW,3.5,-,N/A,Snow,Light Snow,210,2014-02-09 00:34:00
7:54 PM,16.2,12.2,84,30.11,4.0,SW,3.5,-,N/A,Snow,Light Snow,220,2014-02-09 00:54:00
8:15 PM,16.2,11.8,83,30.11,4.0,SW,3.5,-,N/A,Snow,Light Snow,220,2014-02-09 01:15:00
8:34 PM,15.4,11.3,84,30.11,5.0,Calm,Calm,-,N/A,Snow,Light Snow,0,2014-02-09 01:34:00
8:54 PM,14.5,10.8,85,30.11,7.0,Calm,Calm,-,N/A,Snow,Light Snow,0,2014-02-09 01:54:00
9:15 PM,12.9,9.7,87,30.10,7.0,Calm,Calm,-,N/A,Snow,Light Snow,0,2014-02-09 02:15:00
9:34 PM,12.4,9.9,90,30.10,5.0,Calm,Calm,-,N/A,Snow,Light Snow,0,2014-02-09 02:34:00
9:55 PM,12.0,9.5,90,30.10,7.0,Calm,Calm,-,N/A,,Mostly Cloudy,0,2014-02-09 02:55:00
10:15 PM,10.0,7.5,90,30.11,5.0,Calm,Calm,-,N/A,,Overcast,0,2014-02-09 03:15:00
10:34 PM,9.5,6.8,89,30.11,7.0,Calm,Calm,-,N/A,Snow,Light Snow,0,2014-02-09 03:34:00
10:55 PM,9.3,6.3,87,30.10,10.0,Calm,Calm,-,N/A,,Overcast,0,2014-02-09 03:55:00
11:14 PM,10.2,7.3,88,30.10,7.0,Calm,Calm,-,N/A,Snow,Light Snow,0,2014-02-09 04:14:00
11:34 PM,8.1,4.8,87,30.09,3.0,Calm,Calm,-,N/A,Snow,Light Snow,0,2014-02-09 04:34:00
11:55 PM,8.6,5.5,87,30.09,3.0,Calm,Calm,-,N/A,Snow,Light Snow,0,2014-02-09 04:55:00